Regional Weather Roundup
Issued by NWS San Angelo, TX

Home | Current Version | Previous Version | Text Only | Print | Product List | Glossary On
Versions: 1 2 3 4 5 6 7 8 9 10 11 12 13 14 15 16 17 18 19 20 21 22 23 24 25 26 27 28 29 30 31 32 33 34 35 36 37 38 39 40 41 42 43 44 45 46 47 48 49 50
000
ASUS44 KSJT 131711
RWRSJT
WEST CENTRAL TEXAS REGIONAL WEATHER ROUNDUP
NATIONAL WEATHER SERVICE SAN ANGELO TX
1100 AM CST SAT FEB 13 2016

NOTE: "FAIR" INDICATES FEW OR NO CLOUDS BELOW 12,000 FEET WITH NO
SIGNIFICANT WEATHER AND/OR OBSTRUCTIONS TO VISIBILITY.

TXZ049-054-064>066-071>073-076>078-098-099-113-114-127-128-139-140-
154-155-168>170-131800
...LOCATIONS ACROSS WEST CENTRAL TEXAS...

CITY           SKY/WX    TMP DP  RH WIND       PRES   REMARKS
SAN ANGELO     SUNNY     60  38  43 CALM      30.32F
ABILENE        SUNNY     58  35  42 S14       30.33F
DYESS AFB      SUNNY     58  37  44 S12       30.32F
JUNCTION       SUNNY     61  41  47 CALM      30.33F
SWEETWATER     SUNNY     61  39  43 SE13      30.34F
BROWNWOOD      SUNNY     61  36  39 S7        30.34F
COLEMAN        SUNNY     60  39  45 SE13      30.34F
SONORA         SUNNY     66  45  45 S12       30.35F
OZONA          FAIR      64  45  48 S12       30.33F
BRADY          NOT AVBL
$$

TEXAS PANHANDLE/OKLAHOMA PANHANDLE

CITY           SKY/WX    TMP DP  RH WIND       PRES   REMARKS
AMARILLO       SUNNY     47  33  58 S25G35    30.25F WCI  39
BORGER         SUNNY     45  32  60 S14       30.26F WCI  38
CANADIAN       SUNNY     41  30  64 S14       30.31F WCI  34
DALHART        SUNNY     54  32  43 S22       30.19F
DUMAS          SUNNY     46  33  59 S20       30.21F WCI  39
GUYMON         NOT AVBL
HEREFORD       NOT AVBL
PAMPA          SUNNY     44  31  59 S16       30.27F WCI  37
PERRYTON       SUNNY     40  32  73 S17G24    30.26F WCI  31
$$

SOUTHERN PANHANDLE/SOUTH PLAINS/ROLLING PLAINS

CITY           SKY/WX    TMP DP  RH WIND       PRES   REMARKS
LUBBOCK        MOSUNNY   53  35  50 S14       30.28F
SNYDER           N/A     54  36  50 SE10      30.32F
CHILDRESS      SUNNY     44  29  55 SE9       30.34F WCI  39
SEMINOLE       SUNNY     55  37  50 S10       30.30F
$$

PERMIAN BASIN

CITY           SKY/WX    TMP DP  RH WIND       PRES   REMARKS
MIDLAND        SUNNY     57  39  51 S14       30.29F
ODESSA         SUNNY     58  39  49 S10       30.29F
WINK           SUNNY     59  39  47 S10       30.26F
$$

FAR WEST/SOUTHWEST MOUNTAINS/TRANS PECOS

CITY           SKY/WX    TMP DP  RH WIND       PRES   REMARKS
ALPINE         SUNNY     70  20  14 SW14      30.37S
DRYDEN           N/A     62  45  53 VRB7      30.29F
EL PASO        PTSUNNY   58  16  19 NW3       30.26F
FORT STOCKTON  SUNNY     59  29  31 CALM      30.29F
GUADALUPE PASS SUNNY     56  17  21 SW9       30.33S
MARFA          SUNNY     63  20  19 SE12      30.35F
PECOS          SUNNY     51  33  49 CALM      30.28F
$$

DALLAS/FORT WORTH METROPLEX

CITY           SKY/WX    TMP DP  RH WIND       PRES   REMARKS
DFW AIRPORT    MOSUNNY   54  34  46 SE12      30.39F
FTW MEACHAM    SUNNY     55  36  48 E10       30.38F
DAL-EXECUTIVE  SUNNY     54  35  48 E12       30.38F
GRAND PRAIRIE  NOT AVBL
ADDISON        SUNNY     54  36  50 SE13G20   30.41S
MESQUITE       NOT AVBL
LANCASTER      SUNNY     53  33  47 E9        30.41F
$$

NORTH CENTRAL TEXAS

CITY           SKY/WX    TMP DP  RH WIND       PRES   REMARKS
SHRMAN/DENISON SUNNY     52  31  45 SE15      30.42F
GAINESVILLE    SUNNY     51  32  47 SE10      30.41F
BRIDGEPORT     SUNNY     50  36  57 SE10      30.40F
DENTON         SUNNY     53  33  46 E14       30.39F
WAXAHACHIE     SUNNY     54  39  55 E10       30.40F
GRANBURY       SUNNY     56  36  48 E3        30.39S
$$

WESTERN NORTH TEXAS

CITY           SKY/WX    TMP DP  RH WIND       PRES   REMARKS
WICHITA FALLS  SUNNY     47  31  53 SE13      30.37F
VERNON         SUNNY     45  26  49 SE10      30.39F WCI  39
BRECKENRIDGE   SUNNY     57  33  39 CALM      30.35F
COMANCHE       SUNNY     56  38  50 SE9       30.35F
$$

CENTRAL AND SOUTH CENTRAL TEXAS

CITY           SKY/WX    TMP DP  RH WIND       PRES   REMARKS
AUSTIN/BERGSTM PTSUNNY   62  49  62 SW8       30.35F
WACO           SUNNY     59  39  47 SE9       30.36F
HILLSBORO      SUNNY     57  37  46 E12       30.37F
TEMPLE         SUNNY     61  42  49 SE9       30.36F
KILLEEN-GRAY   MOSUNNY   59  42  53 E8        30.34F
FORT HOOD      MOSUNNY   61  41  48 SE7       30.33F
GEORGETOWN     MOSUNNY   61  45  55 SE5       30.35F
LAGO VISTA     FAIR      63  46  52 CALM      30.35S
SAN MARCOS     SUNNY     61  50  67 S5        30.37S
NEW BRAUNFELS  CLOUDY    65  55  70 S9        30.35S
RANDOLPH AFB   CLOUDY    62  54  76 SE5       30.36R
SAN ANTONIO    PTSUNNY   64  51  62 S5        30.36R
STINSON        CLOUDY    63  53  70 CALM      30.34S
PLEASANTON     NOT AVBL
LA GRANGE      CLOUDY    66  60  81 SW7       30.34S
GIDDINGS       CLOUDY    64  58  80 SW8       30.39F
$$

EAST TEXAS

CITY           SKY/WX    TMP DP  RH WIND       PRES   REMARKS
PARIS          SUNNY     50  27  40 SE15      30.46R
CLARKSVILLE    NOT AVBL
TYLER          SUNNY     54  32  43 E13       30.42F
LONGVIEW       SUNNY     51  31  46 E13       30.44F
PALESTINE      SUNNY     58  37  43 E10       30.41S
NACOGDOCHES    SUNNY     55  34  44 E7        30.42S
$$

TEXAS HILL COUNTRY AND EDWARDS PLATEAU

CITY           SKY/WX    TMP DP  RH WIND       PRES   REMARKS
LLANO          SUNNY     63  43  48 SE3       30.37F
HORSESHOE BAY  FAIR      64  45  49 E3        30.34F
KERRVILLE      SUNNY     62  49  62 S3        30.35S
FREDERICKSBRG  SUNNY     61  43  51 CALM      30.33F
ROCKSPRINGS    SUNNY     66  48  52 SE12      30.35S
HONDO          CLOUDY    62  54  74 SE7       30.37S
UVALDE         CLOUDY    61  54  76 SE7       30.35S
DEL RIO        SUNNY     67  51  56 SE10G21   30.30S
$$

SOUTHEAST TEXAS

CITY           SKY/WX    TMP DP  RH WIND       PRES   REMARKS
COLLEGE STN    PTSUNNY   66  47  50 SE12      30.36S
CALDWELL       CLOUDY    63  46  55 SE7       30.39S
CROCKETT       SUNNY     59  37  44 E8        30.42F
BRENHAM        CLOUDY    65  55  68 CALM      30.37S
HUNTSVILLE     SUNNY     63  39  41 VRB7      30.37F
CONROE         SUNNY     64  40  41 SE10      30.38S
HOUSTON BUSH   MOSUNNY   64  45  49 SE12G17   30.37F
HOUSTON HOBBY  MOSUNNY   65  51  60 E14       30.37S
PERLAND        CLOUDY    65  53  65 E14       30.38F
WHARTON        PTSUNNY   70  59  68 CALM      30.37S
$$

THE UPPER TEXAS COAST

CITY           SKY/WX    TMP DP  RH WIND       PRES   REMARKS
ORANGE         MOSUNNY   61  34  36 E12       30.42F
PORT ARTHUR    SUNNY     63  39  41 E18       30.39F
GALVESTON      PTSUNNY   63  56  78 E17       30.38S
ANGLETON       PTSUNNY   68  61  78 NE12      30.36S
BAY CITY       CLOUDY    70  62  77 CALM      30.36S
$$

TEXAS COASTAL BEND, RIO GRANDE PLAINS DEEP SOUTH TEXAS

CITY           SKY/WX    TMP DP  RH WIND       PRES   REMARKS
VICTORIA       CLOUDY    61  61 100 E5        30.37R FOG
BEEVILLE       FAIR      70  60  71 S8        30.35S
ROCKPORT       PTSUNNY   71  62  73 E7        30.35S
PORT ARANSAS   PTSUNNY   69  60  70 SE3       30.34S
PORT LAVACA    PTSUNNY   62  62 100 E6        30.36F
CORPUS CHRISTI PTSUNNY   73  54  51 SE9       30.34S
KINGSVILLE NAS MOSUNNY   71  58  63 S10       30.33S
COTULLA        PTSUNNY   70  58  65 SE10      30.33S
LAREDO         SUNNY     71  58  63 SE13      30.31F
BROWNSVILLE    PTSUNNY   73  54  51 S15       30.33R
PORT ISABEL    MOSUNNY   73  58  59 E16       30.32S
HEBBRONVILLE   NOT AVBL
MCALLEN        SUNNY     72  61  68 SE9       30.33S
WESLACO        MOSUNNY   74  57  56 SE13G20   30.32S
FALFURRIAS     MOSUNNY   73  55  54 SE12G18   30.32F
EDINBURG       SUNNY     73  58  60 SE10      30.33S
$$



USA.gov is the U.S. government's official web portal to all federal, state and local government web resources and services.